TimeMDT,TemperatureF,Dew PointF,Humidity,Sea Level PressureIn,VisibilityMPH,Wind Direction,Wind SpeedMPH,Gust SpeedMPH,PrecipitationIn,Events,Conditions,WindDirDegrees,DateUTC
12:14 AM,28.4,26.6,93,29.93,10.0,NNE,12.7,-,N/A,,Overcast,30,2012-10-24 06:14:00
12:21 AM,28.4,26.6,93,29.94,10.0,NE,13.8,-,N/A,,Overcast,50,2012-10-24 06:21:00
12:34 AM,28.4,26.6,93,29.95,10.0,NE,12.7,-,N/A,,Overcast,40,2012-10-24 06:34:00
12:44 AM,28.4,26.6,93,29.95,10.0,NE,11.5,-,N/A,,Overcast,50,2012-10-24 06:44:00
12:53 AM,28.9,26.1,89,30.03,10.0,ENE,11.5,-,N/A,,Overcast,60,2012-10-24 06:53:00
1:10 AM,28.4,26.6,93,29.97,10.0,ENE,8.1,-,N/A,,Overcast,70,2012-10-24 07:10:00
1:53 AM,28.0,26.1,92,30.04,10.0,NE,6.9,-,N/A,,Overcast,40,2012-10-24 07:53:00
1:59 AM,28.4,26.6,93,29.98,10.0,NE,4.6,-,N/A,,Overcast,50,2012-10-24 07:59:00
2:43 AM,28.4,24.8,86,29.99,10.0,SE,4.6,-,N/A,,Overcast,130,2012-10-24 08:43:00
2:53 AM,28.0,25.0,88,30.05,10.0,ESE,5.8,-,0.00,Snow,Light Snow,120,2012-10-24 08:53:00
3:08 AM,28.4,24.8,86,29.99,10.0,East,5.8,-,0.00,Snow,Light Snow,100,2012-10-24 09:08:00
3:27 AM,28.4,24.8,86,30.00,10.0,Calm,Calm,-,0.00,Snow,Light Snow,0,2012-10-24 09:27:00
3:53 AM,28.9,26.1,89,30.06,10.0,Calm,Calm,-,0.00,Snow,Light Snow,0,2012-10-24 09:53:00
4:53 AM,28.0,26.1,92,30.09,10.0,Calm,Calm,-,0.00,,Overcast,0,2012-10-24 10:53:00
5:27 AM,28.4,24.8,86,30.01,9.0,NNE,4.6,-,N/A,Snow,Light Snow,30,2012-10-24 11:27:00
5:53 AM,28.0,26.1,92,30.09,9.0,NNE,3.5,-,0.00,Snow,Light Snow,20,2012-10-24 11:53:00
6:53 AM,28.9,26.1,89,30.11,10.0,Calm,Calm,-,0.00,,Overcast,0,2012-10-24 12:53:00
7:53 AM,28.9,26.1,89,30.12,10.0,East,3.5,-,N/A,,Overcast,90,2012-10-24 13:53:00
8:53 AM,30.0,27.0,88,30.13,10.0,Calm,Calm,-,N/A,,Overcast,0,2012-10-24 14:53:00
10:06 AM,30.2,26.6,86,30.05,10.0,SE,4.6,-,N/A,,Overcast,140,2012-10-24 16:06:00
10:53 AM,30.9,27.0,85,30.14,10.0,Calm,Calm,-,N/A,,Overcast,0,2012-10-24 16:53:00
11:53 AM,33.1,28.0,82,30.13,10.0,ENE,4.6,-,N/A,,Overcast,60,2012-10-24 17:53:00
12:19 PM,33.8,26.6,75,30.05,10.0,ESE,3.5,-,N/A,,Overcast,110,2012-10-24 18:19:00
12:53 PM,35.1,27.0,72,30.13,10.0,Calm,Calm,-,N/A,,Mostly Cloudy,0,2012-10-24 18:53:00
1:27 PM,35.6,28.4,75,30.03,10.0,ENE,6.9,-,N/A,,Scattered Clouds,70,2012-10-24 19:27:00
1:53 PM,37.0,28.0,70,30.11,10.0,East,5.8,-,N/A,,Scattered Clouds,90,2012-10-24 19:53:00
2:53 PM,37.9,27.0,65,30.11,10.0,NE,6.9,-,N/A,,Scattered Clouds,50,2012-10-24 20:53:00
3:53 PM,37.9,28.0,68,30.11,10.0,East,6.9,-,N/A,,Scattered Clouds,90,2012-10-24 21:53:00
4:53 PM,37.9,28.0,68,30.14,10.0,NE,9.2,-,N/A,,Scattered Clouds,50,2012-10-24 22:53:00
5:53 PM,35.1,27.0,72,30.16,10.0,ENE,9.2,-,N/A,,Partly Cloudy,60,2012-10-24 23:53:00
6:53 PM,33.8,26.6,75,30.09,10.0,ENE,4.6,-,N/A,,Partly Cloudy,60,2012-10-25 00:53:00
7:53 PM,32.0,27.0,82,30.21,10.0,NNE,5.8,-,N/A,,Clear,30,2012-10-25 01:53:00
8:53 PM,30.0,26.1,85,30.24,10.0,NNE,10.4,-,N/A,,Mostly Cloudy,30,2012-10-25 02:53:00
9:53 PM,28.0,26.1,92,30.25,10.0,NNE,9.2,-,N/A,,Partly Cloudy,30,2012-10-25 03:53:00
10:53 PM,28.0,25.0,88,30.26,10.0,NNE,9.2,-,N/A,,Mostly Cloudy,30,2012-10-25 04:53:00
11:53 PM,28.0,25.0,88,30.27,10.0,NE,6.9,-,N/A,,Scattered Clouds,50,2012-10-25 05:53:00